This is the latest recevied weather packets stored in our database for station/object VE1DX. If no packets are shown the sender has not sent any weather packets the latest 10 day(s).
| Time | Temp. | Humidity | Pressure | Rain* | Wind** | Luminosity | Snow |
|---|---|---|---|---|---|---|---|
| 1777839317 | 5° C | 94% | 987.7 hPa | 1.27 mm | - | - | - |
| 1777838117 | 5° C | 93% | 989.1 hPa | 1.52 mm | - | - | - |
| 1777837521 | 5° C | 93% | 989.6 hPa | 1.52 mm | - | - | - |
| 1777836617 | 5° C | 93% | 990.7 hPa | 2.29 mm | - | - | - |
| 1777836317 | 5° C | 93% | 991.1 hPa | 2.79 mm | - | - | - |
| 1777835417 | 5° C | 93% | 992.1 hPa | 4.06 mm | - | - | - |
| 1777835117 | 5° C | 93% | 992.5 hPa | 4.06 mm | - | - | - |
| 1777834517 | 5° C | 93% | 993 hPa | 4.32 mm | - | - | - |
| 1777834217 | 5° C | 93% | 993.2 hPa | 4.32 mm | - | - | - |
| 1777833317 | 5.56° C | 93% | 994.2 hPa | 4.06 mm | - | - | - |
| 1777833017 | 5.56° C | 93% | 994.5 hPa | 4.06 mm | - | - | - |
| 1777832717 | 5.56° C | 93% | 994.7 hPa | 3.81 mm | - | - | - |
| 1777832417 | 5.56° C | 93% | 994.9 hPa | 3.56 mm | - | - | - |
| 1777831517 | 5.56° C | 92% | 995.8 hPa | 3.3 mm | - | - | - |
| 1777831217 | 5.56° C | 92% | 996 hPa | 3.05 mm | - | - | - |
| 1777830617 | 6.11° C | 92% | 996.4 hPa | 2.79 mm | - | - | - |
| 1777829717 | 6.11° C | 92% | 997.7 hPa | 2.03 mm | - | - | - |
| 1777828517 | 6.67° C | 91% | 998.6 hPa | 0.76 mm | - | - | - |
| 1777828217 | 6.67° C | 91% | 998.5 hPa | 0.25 mm | - | - | - |
| 1777827618 | 6.11° C | 91% | 999.5 hPa | 0.51 mm | - | - | - |
| 1777827017 | 6.11° C | 91% | 1000 hPa | 0.76 mm | - | - | - |
| 1777826417 | 6.11° C | 91% | 1000.3 hPa | 1.02 mm | - | - | - |
| 1777825217 | 6.67° C | 91% | 1000.9 hPa | 1.27 mm | - | - | - |
| 1777824017 | 6.11° C | 90% | 1002 hPa | 1.52 mm | - | - | - |
| 1777823417 | 6.11° C | 90% | 1003.1 hPa | 1.02 mm | - | - | - |
* Rain latest hour (hover to see other rain measurements)
** Current wind speed in m/s (hover to see current wind gust speed)